Location: Unspecified
(0.0000°N, 0.0000°E)
Time: 08:50:54
(UTC+00:00)

Tiangong - Pass Details

Date: 27 November 2022
Orbit: 385 x 393 km, 41.5° (Epoch: 29 November)

Event Time Altitude Azimuth Distance (km) Brightness Sun altitude
Exits shadow 03:33:09 11° 107° (ESE) 1,380 1.5 -31.1°
Drops below altitude 10° 03:33:15 10° 108° (ESE) 1,417 1.6 -31.1°
Sets 03:35:28 0° 119° (ESE) 2,273 2.9 -30.5°
